Location: Clarion
(42.7316°N, 93.7330°W)
Time: 09:51:32
(UTC+00:00)

S3M - Pass Details

Date: 22 April 2026
Orbit: 947 x 1004 km, 83.0° (Epoch: 17 May)

Event Time Altitude Azimuth Distance (km) Brightness Sun altitude
Rises 10:48:14 0° 196° (SSW) 3,710 6.7 -6.7°
Reaches altitude 10° 10:50:48 10° 199° (SSW) 2,761 6.0 -6.3°
Maximum altitude 10:57:04 63° 280° (W) 1,105 4.1 -5.2°
Drops below altitude 10° 11:03:19 10° 1° (N) 2,745 6.7 -4.1°
Sets 11:05:52 0° 5° (N) 3,689 7.4 -3.7°
